Pacific - Georgia Basin: Past 24 Hour Conditions

 

Vancouver Int'l Airport

03:00 PM PDT 20 August 2014
This table is a summary of hourly weather conditions for the past 24 hours.
Date / Time
(PDT)
Wind(knots) Conditions Visibility(km) Pressure(kPa) Air tempC) Relative humidity(%) Dew pointC) Humidex
20 August 2014
15:00 SSW 12 gust 19 Mostly Cloudy 32 101.5 21 64 14 *
14:00 SW 9 Mostly Cloudy 24 101.5 21 68 15 *
13:00 S 4 Mostly Cloudy 24 101.5 20 66 13 *
12:00 S 8 Mostly Cloudy 24 101.4 20 69 14 *
11:00 SSE 9 gust 16 Mostly Cloudy 24 101.4 19 69 14 *
10:00 SE 6 Mostly Cloudy 24 101.4 19 72 14 *
9:00 ESE 6 Mostly Cloudy 24 101.3 19 75 14 *
8:00 E 10 Partly Cloudy 24 101.3 17 80 13 *
7:00 E 8 Partly Cloudy 24 101.2 15 89 13 *
6:00 E 7 Mostly Cloudy 24 101.2 15 90 13 *
5:00 ENE 8 Partly Cloudy 24 101.1 15 91 14 *
4:00 E 7 Mainly Clear 24 101.1 15 90 14 *
3:00 E 6 Mainly Clear 24 101.0 15 92 14 *
2:00 E 4 Partly Cloudy 24 100.9 16 89 14 *
1:00 N 1 Partly Cloudy 24 100.9 19 85 16 *
0:00 S 4 Clear 24 100.9 18 90 17 *
19 August 2014
23:00 WSW 3 Clear 32 100.8 19 91 17 *
22:00 W 4 Clear 32 100.8 18 89 16 *
21:00 WNW 4 Mainly Clear 48 100.8 18 86 16 *
20:00 WNW 3 Mostly Cloudy 48 100.8 20 80 17 25
19:00 WSW 6 Mostly Cloudy 48 100.8 22 70 16 26
18:00 WSW 6 Partly Cloudy 48 100.8 22 69 16 27
17:00 WSW 6 Partly Cloudy 48 100.8 23 67 17 28
16:00 WSW 8 Partly Cloudy 48 100.9 22 69 17 27
15:00 WSW 6 Partly Cloudy 48 100.9 22 73 17 27
 
Map of Pacific - Georgia Basin marine weather areas Tsawwassen Ferry Terminal Sentry Shoal - 46131 Halibut Bank - 46146 La Perouse Bank - 46206 Discovery Island Esquimalt Harbour Kelp Reefs Malahat Race Rocks Lightstation Saturna Island Sheringham Point University of Victoria Victoria Gonzales Victoria Int'l Airport Ballenas Islands Campbell River Airport Comox Airport Entrance Island Fanny Island Nanaimo Airport Sisters Islets Estevan Point Tofino Airport Grief Point Powell River Airport Sechelt Point Atkinson Sand Heads Lightstation Vancouver Harbour Vancouver Int'l Airport West Vancouver Port Alberni Howe Sound - Pam Rocks Squamish Airport